BEIJING 1 1 28890U 05043A 26168.83431824 .00000523 00000+0 11024-3 0 9995 2 28890 98.2918 302.0503 0013345 281.6173 78.3531 14.63533507100749 HUANJING 1A (HJ-1A) 1 33320U 08041A 26168.90802916 .00000799 00000+0 10190-3 0 9990 2 33320 97.6678 154.7181 0019995 132.5641 227.7265 14.83986326958517 HUANJING 1B (HJ-1B) 1 33321U 08041B 26168.87742689 .00000981 00000+0 12479-3 0 9992 2 33321 97.6515 157.8587 0036105 178.5880 181.5443 14.83319344958514 YAOGAN-4 1 33446U 08061A 26168.77426433 .00000774 00000+0 10121-3 0 9999 2 33446 97.9308 102.2802 0015698 70.6911 289.5998 14.83201079945751 DEIMOS-1 1 35681U 09041A 26168.79681514 .00000273 00000+0 47337-4 0 9990 2 35681 97.7401 325.9974 0001662 129.5601 230.5756 14.75237242906977 UK-DMC 2 1 35683U 09041C 26168.90372541 .00000595 00000+0 93535-4 0 9990 2 35683 97.8843 303.8527 0001130 90.3032 269.8308 14.76027623906678 DMC3-FM1 1 40715U 15032A 26168.81149539 -.00000010 00000+0 47450-5 0 9997 2 40715 97.6457 33.9623 0007028 57.8447 302.3450 14.85738646590008 DMC3-FM2 1 40716U 15032B 26168.83354703 -.00000082 00000+0 -35514-5 0 9999 2 40716 97.6511 35.5574 0007528 61.6191 298.5783 14.85742471590003 DMC3-FM3 1 40717U 15032C 26168.85687773 .00000604 00000+0 75480-4 0 9991 2 40717 97.6563 37.3335 0006746 62.5540 297.6361 14.85734242590015